Wind_Speed
4 4 3 3 3 3 3 3 4 4 4 3 3 3 2 3 4 5 6 7 8 9 9 9 9 9 10 10 10 8 8 7 12 24 20 17 23 18 13 11 11 10 7 5 8 10 5 3 3 5 6 5 5 4 6 7 5 5 5 5 4 2 1 2 5 7 8 7 6 5 5 9 8 2 2 5 8 6 5 4 4 4 4 4 8 10 8 11
7 6 6 6 5 5 5 5 5 4 4 3 3 3 3 3 4 5 6 8 8 9 9 10 10 8 9 10 10 9 7 7 13 20 20 22 22 15 12 10 9 8 5 3 7 10 6 4 6 9 7 4 5 5 5 5 6 5 4 5 3 1 2 3 7 8 8 9 8 6 5 6 6 4 3 4 2 4 6 4 4 4 6 8 11 9 7 11
8 8 7 7 6 6 6 5 5 5 4 4 3 3 3 3 4 6 6 7 7 8 10 10 9 8 9 8 8 7 6 5 11 15 21 24 18 14 14 11 9 8 4 4 5 7 6 5 9 14 6 5 5 5 6 4 4 5 4 6 3 4 5 6 8 8 8 10 8 5 4 5 2 2 3 5 4 4 4 3 3 4 7 8 10 9 8 13
9 9 8 8 7 6 6 5 5 4 4 3 3 3 3 4 4 6 6 7 8 9 10 9 8 10 12 11 5 3 2 4 6 14 23 25 18 14 13 11 9 7 5 4 4 5 7 4 13 13 5 5 5 6 7 5 3 4 4 5 4 6 7 6 8 9 8 9 8 6 8 7 3 4 3 4 5 5 3 4 4 5 8 7 8 9 10 14
8 8 7 7 6 5 5 4 4 3 4 3 3 3 3 4 5 6 7 8 9 10 9 8 7 11 16 17 9 1 1 5 6 18 24 23 17 13 12 10 7 6 4 3 4 6 6 7 11 8 5 5 5 6 6 5 5 5 4 5 4 6 8 6 7 9 7 8 8 7 7 5 3 4 3 5 5 1 4 5 6 7 8 7 6 8 10 13
6 6 5 5 4 4 3 3 3 3 3 3 2 2 3 4 6 7 8 8 9 9 8 8 6 6 11 18 18 8 5 3 9 19 23 22 16 13 12 9 8 7 5 4 6 7 9 10 10 6 5 5 6 7 4 6 5 5 4 4 5 6 9 6 6 7 7 8 7 5 4 3 5 3 1 5 4 6 6 8 8 7 7 5 6 8 7 10
5 5 5 4 4 4 3 4 3 3 2 2 2 3 4 6 8 8 8 8 9 8 8 9 9 6 2 8 17 15 8 1 11 17 20 22 16 14 12 9 10 9 7 8 6 5 10 11 11 6 5 6 6 8 8 9 8 9 6 3 6 7 8 7 6 8 7 8 6 5 5 5 6 4 1 1 4 6 7 8 7 5 2 7 8 7 7 9
5 5 5 5 5 5 4 4 3 2 2 2 3 5 6 7 7 7 8 9 9 8 8 10 12 8 3 3 7 8 5 4 13 15 17 21 18 14 12 10 10 10 13 12 5 8 10 10 8 5 6 6 4 6 9 11 10 8 7 4 6 6 7 8 7 8 7 7 6 7 7 5 7 5 2 2 6 6 6 5 2 4 8 9 5 4 7 9
5 5 5 5 5 4 3 3 2 2 3 4 5 7 7 7 7 8 9 8 8 8 10 15 17 13 10 6 3 4 5 7 12 14 15 19 20 15 13 12 8 12 19 18 13 13 7 4 4 5 8 6 5 5 3 8 4 2 7 6 7 7 7 8 7 8 6 5 6 8 6 4 5 4 2 4 6 5 5 4 5 7 7 4 2 3 7 10
5 5 5 4 4 3 2 2 2 3 4 5 6 7 6 7 7 8 9 8 8 9 13 21 25 22 18 7 3 6 6 8 10 12 12 16 19 17 17 13 9 14 19 20 19 14 8 10 10 9 10 5 4 3 3 8 5 4 9 8 9 9 5 6 7 6 5 4 5 7 5 2 1 3 0 6 6 4 5 5 5 5 4 3 4 3 7 10
5 5 4 4 3 2 2 3 4 5 5 5 6 6 6 7 7 7 9 9 9 9 13 19 20 22 21 11 7 8 6 7 10 12 12 13 18 19 18 14 10 15 18 18 18 14 16 18 14 9 6 3 5 7 7 8 8 9 12 9 7 7 5 5 6 6 4 3 5 7 5 1 4 3 3 7 6 4 3 4 5 4 1 5 6 5 8 9
6 6 5 4 4 4 5 7 6 6 6 6 6 6 6 6 6 5 7 9 10 10 11 11 10 10 11 10 8 7 9 11 10 12 12 11 16 17 17 16 14 17 19 16 14 12 13 11 10 9 3 4 6 7 5 5 8 8 8 9 5 5 4 4 4 5 4 3 6 6 4 3 3 2 5 7 5 4 3 3 4 3 3 6 5 5 6 9
7 7 7 9 12 16 18 18 16 14 10 8 7 6 6 6 6 6 5 5 5 6 7 7 8 7 5 5 7 10 15 17 13 13 13 13 17 18 19 20 19 20 22 21 18 17 15 16 20 13 5 6 5 5 6 5 6 4 4 6 5 5 2 4 2 3 3 3 5 5 2 4 3 5 6 5 5 5 3 3 2 3 5 5 5 4 4 8
9 10 14 18 20 21 21 20 20 18 15 11 7 6 6 6 7 9 9 8 5 3 4 3 3 4 5 5 7 13 17 18 17 15 15 13 13 17 20 20 21 22 25 27 26 24 24 28 25 11 4 6 5 7 8 5 4 4 4 3 4 4 2 6 2 3 2 2 5 7 1 5 5 6 6 5 5 3 1 2 2 4 5 5 5 4 4 7
12 14 18 19 17 15 13 14 16 17 17 16 12 9 5 4 6 8 10 11 11 7 2 2 3 3 4 3 5 13 18 20 20 17 16 14 9 10 14 16 19 21 24 25 25 26 28 27 17 7 5 6 7 9 6 2 3 4 4 4 3 3 2 6 3 4 1 3 4 6 1 4 5 6 6 5 4 2 2 1 3 3 5 6 4 4 3 5
13 15 15 12 9 7 9 11 10 11 13 16 19 19 13 6 1 2 6 8 13 15 9 6 5 5 6 2 4 12 16 17 19 18 16 13 8 5 6 10 12 14 16 17 20 23 24 20 9 5 6 5 6 6 4 4 3 2 3 1 1 3 1 4 4 2 1 2 1 2 2 2 3 6 7 5 3 2 2 0 3 3 5 5 3 4 4 4
11 11 8 4 2 7 10 10 8 4 4 7 13 19 24 21 9 2 1 2 5 8 13 14 7 4 6 6 5 9 13 14 18 21 18 13 11 4 3 2 4 8 10 12 15 11 9 9 4 3 5 4 4 4 5 5 3 4 3 3 1 2 3 1 3 4 5 1 2 2 3 4 5 7 6 6 4 2 1 2 3 3 5 4 3 3 3 3
4 3 2 3 6 8 9 10 9 5 1 2 3 6 15 25 26 19 9 5 3 1 8 18 12 4 4 10 7 11 16 15 19 24 21 15 16 10 4 5 5 5 5 7 13 9 5 5 3 3 5 5 5 5 5 2 1 2 1 2 1 1 2 2 3 3 4 3 2 2 3 6 5 7 6 6 6 3 2 3 1 3 4 4 3 3 3 3
2 3 4 5 5 5 7 8 9 6 2 1 3 5 2 8 18 25 24 19 11 4 3 10 8 5 2 7 11 15 13 16 22 26 27 20 15 17 17 15 10 6 5 4 7 7 4 4 5 5 5 6 4 3 4 5 4 3 3 4 4 1 1 3 3 3 2 4 4 4 5 5 5 7 7 6 6 5 3 0 2 4 4 4 3 3 2 3
4 4 3 4 3 3 5 9 11 10 7 4 3 3 2 1 5 10 16 18 11 6 5 3 2 4 2 5 14 18 10 16 23 25 32 24 11 13 14 11 7 8 7 4 5 6 5 6 5 3 3 5 5 3 2 5 2 3 3 4 4 2 2 4 3 4 2 3 5 4 4 6 6 7 8 7 6 5 3 1 2 4 5 4 4 4 3 3
6 4 3 2 1 1 4 6 10 11 9 8 7 5 2 2 4 1 3 9 8 8 9 3 6 7 3 3 16 19 4 11 23 25 32 24 10 9 7 6 8 8 6 4 4 4 6 8 3 3 3 5 5 5 3 2 3 4 4 3 2 1 4 4 2 3 2 3 5 3 4 8 7 7 7 7 6 5 5 2 1 4 5 5 5 3 3 3
7 5 2 2 1 2 2 1 6 7 7 9 12 10 6 5 7 6 3 6 5 6 8 9 12 8 6 7 17 18 5 9 18 21 29 24 13 8 4 6 11 7 6 5 4 5 7 7 5 5 2 4 5 6 7 5 5 5 2 3 2 1 3 4 3 2 2 2 4 4 6 9 8 6 7 8 7 5 5 5 3 3 4 6 4 2 4 4
7 6 3 1 1 2 3 1 2 4 5 7 12 11 9 9 9 6 3 6 2 5 6 9 10 8 9 10 16 18 11 8 6 12 24 19 8 6 4 8 11 6 6 6 6 6 5 4 8 5 4 7 8 8 9 7 5 4 3 4 1 3 2 2 5 4 1 1 2 3 5 8 7 3 5 7 5 4 4 6 3 1 4 6 3 3 4 4
6 6 4 0 2 3 3 2 2 4 6 7 12 11 10 9 7 3 2 4 2 3 4 4 5 5 5 7 14 11 6 5 2 8 18 11 3 4 4 6 6 4 5 8 9 8 4 5 7 5 6 7 7 8 9 6 4 3 3 4 1 4 1 3 5 4 3 3 2 3 5 5 5 2 4 4 1 3 3 2 2 4 5 6 4 3 3 4
7 7 4 1 1 4 4 4 4 6 8 9 11 10 9 7 2 1 3 4 4 3 3 2 2 5 5 9 13 4 3 4 2 6 12 8 4 3 2 2 4 4 4 6 7 6 4 5 4 6 6 7 7 6 6 3 2 4 1 3 3 3 2 4 5 5 5 5 2 2 4 5 5 3 5 4 1 3 2 1 3 5 6 6 5 1 2 4
9 7 5 1 2 5 5 2 4 6 6 6 8 8 6 4 1 1 3 5 5 3 5 4 3 7 8 11 12 1 4 4 3 8 13 11 5 2 3 3 2 3 0 3 4 3 4 7 6 6 4 6 7 3 2 2 4 3 2 5 5 3 1 2 4 4 2 3 4 3 3 4 6 4 7 4 2 5 3 2 5 5 5 5 4 1 1 3
10 7 5 2 2 4 4 3 4 4 3 3 6 7 3 3 2 2 3 5 5 2 4 5 4 7 7 10 11 3 3 6 5 12 16 15 10 3 6 5 3 3 2 3 4 1 4 9 9 9 6 7 6 3 3 2 5 2 1 6 5 3 2 2 5 3 1 2 5 2 3 2 5 5 7 3 3 5 5 5 7 5 5 6 5 3 1 1
11 8 4 2 3 3 4 5 4 3 3 5 6 5 3 3 3 2 5 5 4 2 2 3 4 6 6 9 11 6 2 5 3 9 13 17 14 4 7 5 2 4 4 6 4 3 2 6 8 8 8 5 3 4 5 1 2 4 4 5 4 4 4 4 6 3 1 2 4 5 1 1 5 6 5 1 2 6 7 7 8 6 6 6 5 4 2 1
14 10 5 3 4 5 5 5 5 5 6 7 6 5 4 4 2 4 6 3 2 2 1 2 4 6 7 8 9 6 2 2 3 6 10 15 15 6 5 3 3 3 7 6 6 3 1 2 3 6 5 3 4 7 5 2 2 4 5 4 2 3 3 4 5 2 3 4 2 6 2 2 5 6 4 2 2 6 7 7 8 7 6 6 6 5 3 1
17 15 9 4 4 5 5 6 7 8 7 6 6 5 4 3 4 6 5 1 1 2 2 3 3 4 7 8 7 7 6 4 3 5 6 7 11 9 4 2 3 4 5 7 5 1 2 1 2 4 1 3 6 7 4 5 4 2 3 3 5 5 4 3 2 3 4 3 5 7 1 3 3 6 4 3 4 6 5 6 7 6 6 6 6 5 3 3
19 19 15 9 5 4 3 5 7 7 6 7 6 4 3 4 5 7 3 1 1 3 4 4 3 4 8 6 5 6 6 6 5 6 6 4 8 9 6 5 4 4 5 7 5 4 6 5 2 1 2 2 2 3 2 1 3 4 5 4 5 4 4 4 4 4 5 3 6 6 2 2 2 6 5 5 6 6 5 6 8 7 6 6 6 5 4 4
21 19 18 15 10 7 6 5 5 6 6 7 5 4 5 5 6 3 1 3 2 2 2 3 4 5 6 4 5 6 5 5 5 5 4 3 5 6 5 4 2 3 5 4 4 6 5 3 4 4 3 2 4 3 5 6 6 7 6 5 5 3 4 4 4 3 1 4 6 4 1 1 4 8 7 6 7 7 7 8 8 7 6 6 6 5 5 4
20 18 18 17 13 10 9 7 4 5 5 4 3 5 7 6 3 1 3 3 0 1 1 1 4 4 5 5 5 6 4 3 5 6 3 3 5 4 3 4 2 1 2 1 3 5 4 5 6 5 3 4 5 4 3 5 5 5 4 3 4 2 4 4 4 3 2 5 7 4 1 2 4 7 7 7 7 8 8 8 8 7 6 6 6 5 4 3
17 18 18 18 16 12 10 6 5 5 4 3 4 6 9 6 1 1 2 2 1 2 1 1 4 5 5 4 2 4 3 2 3 5 5 4 5 4 4 7 6 2 1 3 2 2 2 4 4 2 2 3 3 2 2 1 2 2 1 4 4 3 3 0 2 2 3 5 8 6 1 2 5 5 6 7 6 7 6 7 6 6 7 6 4 4 4 3
12 17 20 21 19 14 10 6 4 4 2 4 7 7 7 3 2 1 1 3 1 3 3 2 3 5 4 3 2 2 1 1 2 5 5 4 3 3 4 5 6 3 3 3 1 0 1 3 5 1 0 2 1 2 3 4 1 3 2 5 2 2 4 2 3 5 3 4 5 3 1 4 5 5 4 3 5 6 5 6 5 6 8 6 3 4 4 3
9 14 19 21 21 17 11 7 5 3 2 6 9 6 3 2 2 2 2 1 0 1 3 3 4 5 4 4 3 4 2 1 2 4 3 3 2 1 2 3 4 4 3 3 0 1 1 4 5 2 3 1 3 3 2 3 0 2 3 2 2 3 6 2 3 3 1 2 4 3 3 6 5 5 5 4 6 8 6 5 6 7 7 6 4 4 3 3
6 10 14 20 21 18 13 8 5 4 4 8 8 3 1 1 2 2 1 1 1 1 2 2 2 3 2 3 4 6 4 2 3 3 2 2 1 1 2 3 3 2 1 2 1 0 1 3 6 1 1 3 4 2 1 1 2 3 2 2 2 2 4 3 1 3 4 1 4 4 5 6 4 4 6 6 7 9 7 5 7 6 6 6 4 4 3 4
3 4 9 20 21 17 15 9 4 4 6 8 7 3 1 1 1 2 1 1 1 1 4 3 1 1 2 0 3 6 4 3 3 3 2 1 1 1 0 2 2 1 1 0 1 0 2 2 6 2 2 4 1 3 3 4 1 3 2 2 2 2 1 1 1 1 2 2 5 5 5 5 2 3 6 7 8 9 8 6 6 7 6 5 4 4 4 4
4 2 5 19 21 15 13 8 4 7 8 7 4 2 1 1 0 1 2 1 1 2 3 1 1 1 1 2 1 4 3 2 1 3 2 1 1 1 2 1 2 2 3 1 2 1 1 1 4 4 1 2 3 3 0 3 3 2 2 2 1 2 2 1 0 2 1 2 4 4 5 5 5 6 5 7 9 8 7 6 6 7 6 4 4 5 5 4
4 3 2 18 21 12 9 10 10 8 7 5 3 2 2 1 1 1 2 1 1 1 1 1 1 2 1 2 1 1 1 1 1 2 1 0 0 0 1 1 2 4 4 3 2 1 1 2 3 6 4 1 1 1 3 3 1 1 2 2 2 1 0 0 1 2 3 2 2 3 5 6 6 5 5 8 8 7 7 7 6 7 6 4 5 5 4 4
4 4 2 18 21 9 6 12 10 6 5 4 2 2 2 1 1 0 1 1 0 1 1 2 2 2 2 1 1 1 1 2 1 1 0 1 1 1 1 2 1 2 3 3 2 1 1 1 2 4 4 2 3 4 3 4 4 4 2 2 2 1 2 2 2 2 2 3 4 1 4 9 7 3 5 7 6 6 7 6 6 7 5 5 6 5 5 4
6 4 4 18 18 7 8 9 4 3 5 3 2 2 1 2 2 0 1 1 1 1 1 1 1 1 2 1 1 2 1 1 1 1 1 2 1 2 2 1 1 1 1 1 1 1 1 2 0 4 5 3 5 3 1 2 2 3 2 2 3 3 4 4 2 4 1 1 2 2 2 8 7 4 5 6 5 6 6 6 7 7 5 5 5 4 5 4
4 2 5 18 14 4 10 7 3 5 4 0 1 1 2 2 2 0 0 1 0 0 2 1 0 1 1 1 1 1 1 1 1 1 1 2 2 2 1 1 1 1 1 1 1 1 0 2 1 5 5 3 4 3 2 3 2 1 2 1 3 3 3 5 5 3 0 3 1 2 3 8 7 4 5 5 5 6 6 6 7 6 5 5 5 5 5 4
3 3 3 18 14 2 5 4 2 3 1 0 2 2 2 1 2 1 1 0 0 1 1 0 1 0 0 1 2 1 1 0 1 1 0 2 1 2 2 2 2 0 1 1 1 1 1 0 1 3 6 7 6 6 5 5 2 2 3 2 3 4 6 4 2 3 1 4 4 4 4 8 7 3 3 5 6 7 8 7 6 6 5 3 5 5 5 4
4 1 3 14 19 11 5 3 6 5 2 2 4 2 1 2 0 2 2 1 1 2 2 0 0 1 1 1 2 1 1 1 1 1 2 1 2 2 3 3 2 1 1 2 1 0 1 1 1 2 2 3 5 5 5 4 3 2 1 1 2 4 7 4 2 3 1 4 5 5 6 10 12 9 8 9 8 9 10 8 5 5 3 3 5 5 5 4
3 3 3 8 13 11 4 1 5 6 4 4 4 1 2 2 2 1 2 0 1 1 1 0 0 1 2 2 2 2 1 1 1 1 0 2 3 1 1 1 1 2 2 1 2 1 2 1 2 5 5 5 6 8 5 2 4 6 5 3 3 4 6 5 4 3 5 2 2 7 9 11 17 16 13 13 11 11 11 8 6 5 1 4 5 5 4 4
3 2 2 3 5 5 5 5 5 4 3 4 3 0 2 2 2 1 1 1 0 1 0 0 1 1 0 1 2 1 2 1 1 0 1 3 2 2 1 1 2 1 1 0 2 2 3 3 3 5 7 8 8 11 8 3 6 10 8 5 5 5 5 6 6 6 3 2 5 9 5 6 16 17 15 15 13 11 11 8 6 4 3 4 4 4 4 4
4 2 1 1 1 2 3 4 4 5 4 4 3 1 2 2 0 1 1 1 1 0 0 0 1 2 4 3 2 0 2 2 1 2 1 2 2 2 2 0 1 3 2 2 3 2 5 3 4 3 7 10 10 12 10 5 7 9 8 7 6 6 9 11 11 8 5 3 11 11 6 9 16 18 17 15 12 11 10 8 5 3 3 4 4 4 5 4
4 3 1 2 2 3 1 1 3 5 5 4 3 1 3 4 3 3 2 1 2 2 1 0 4 4 5 4 4 1 2 1 2 3 1 1 2 1 2 1 0 2 2 2 2 1 4 3 4 2 7 10 9 10 8 5 5 7 8 9 9 9 12 13 12 8 7 11 16 16 16 18 18 16 16 14 11 9 8 6 4 3 2 5 5 5 5 4
3 2 1 4 4 1 1 1 3 4 4 3 2 1 3 6 5 3 2 3 1 2 1 2 5 4 4 5 5 3 5 5 3 4 3 1 2 2 2 2 1 1 2 1 1 1 1 3 3 2 5 10 8 6 4 4 5 9 11 8 8 8 9 10 9 5 6 11 15 13 13 16 14 10 10 11 8 6 6 6 5 5 4 5 5 5 5 4
4 4 2 4 3 3 2 2 3 4 3 3 1 1 2 4 6 3 1 2 2 3 4 5 4 3 2 2 3 6 6 6 6 6 6 4 3 3 3 2 4 3 0 1 0 0 1 2 2 5 4 8 6 6 9 8 4 7 12 10 6 6 6 6 5 6 7 8 9 7 7 11 9 4 5 8 6 6 8 7 5 5 4 5 5 6 5 5
4 2 2 5 3 3 3 3 4 3 1 2 0 1 1 3 3 1 1 0 2 1 4 5 5 3 1 2 5 6 5 5 6 5 4 4 3 2 1 2 5 5 4 3 1 0 2 1 2 3 1 7 6 7 10 10 6 4 7 6 6 6 5 5 4 7 9 6 4 5 8 10 8 6 9 11 8 7 8 6 4 6 4 5 6 6 5 5
Wind_Direction
72 71 67 66 64 66 78 88 105 114 115 114 107 91 50 38 26 23 18 10 9 5 2 352 340 332 324 311 304 303 323 349 8 14 28 8 355 358 350 344 342 349 356 349 17 22 30 78 33 35 63 46 26 350 351 13 27 51 66 68 78 82 88 153 153 151 138 141 154 158 137 119 126 126 107 56 41 41 30 21 11 2 342 321 322 325 343 359
69 71 69 71 74 78 89 95 105 107 106 105 88 77 48 48 30 23 15 10 12 3 1 351 345 334 321 307 287 293 316 347 12 15 13 360 359 6 9 6 352 1 12 18 23 12 7 344 13 51 59 32 11 355 2 11 33 64 95 74 66 86 59 75 120 135 136 147 150 143 134 124 140 152 103 73 56 31 33 349 337 336 306 308 321 334 356 359
67 69 67 71 76 80 90 93 99 100 97 96 80 74 60 50 24 20 11 9 8 359 360 353 351 349 341 323 280 269 289 353 21 4 355 356 359 3 11 16 9 20 36 37 12 360 344 326 59 74 67 42 24 29 34 8 34 64 90 81 83 108 84 70 95 112 128 139 127 108 91 77 76 98 95 112 114 33 23 315 318 315 297 295 311 337 7 3
66 67 69 71 76 79 85 88 90 91 84 83 76 73 57 34 22 13 3 2 1 1 3 359 13 22 22 11 331 248 278 42 14 338 347 353 353 357 6 10 14 39 59 43 6 337 330 15 83 77 71 59 24 49 38 360 65 66 77 112 141 116 91 74 87 92 101 113 109 108 89 76 58 53 76 125 86 7 303 251 243 256 285 284 301 343 15 7
65 66 69 70 75 77 77 79 76 79 79 82 80 63 38 21 8 357 357 1 4 8 6 7 33 43 43 34 24 220 77 62 335 334 349 352 355 3 13 19 31 68 77 50 355 348 11 67 78 56 61 56 5 44 17 355 85 72 50 103 119 103 102 98 97 95 95 97 92 94 94 113 126 61 72 109 100 257 250 238 235 240 260 266 307 356 16 5
68 66 69 70 72 72 66 72 71 81 88 83 71 30 11 360 350 352 357 5 10 9 8 13 21 35 50 44 44 63 92 89 312 334 352 357 5 11 20 42 58 65 55 25 353 18 64 73 67 55 68 56 35 63 26 359 69 93 54 62 68 81 106 107 96 96 95 93 89 100 116 126 93 75 117 105 148 220 242 245 249 251 252 288 4 21 14 352
71 67 70 69 66 74 74 86 92 94 92 55 26 353 351 346 347 358 1 11 15 8 8 12 5 358 40 53 47 55 84 83 320 337 355 3 14 17 30 63 61 51 36 23 4 50 84 81 83 92 82 78 63 71 73 45 50 95 99 74 74 73 93 102 101 99 99 104 111 111 102 102 100 106 110 66 242 249 273 259 252 269 344 23 28 27 360 336
74 73 73 76 78 87 90 95 94 70 34 355 342 337 341 345 354 4 9 17 17 17 13 13 18 21 71 107 61 55 61 333 329 347 357 7 20 21 38 68 62 58 53 43 64 104 94 91 104 112 76 84 104 107 97 67 40 73 106 111 90 77 87 96 96 99 104 113 117 97 99 143 146 126 100 286 274 285 297 285 307 17 42 42 33 6 346 330
81 85 86 88 88 88 85 70 40 3 339 329 333 338 345 354 6 8 15 27 36 41 33 37 47 55 66 77 110 81 20 332 336 349 355 8 20 27 46 61 65 73 63 54 75 95 96 90 95 110 106 108 107 123 118 83 46 62 109 110 98 94 97 100 99 108 115 120 118 103 116 179 171 126 78 279 278 304 314 336 17 41 51 31 336 344 339 339
85 92 89 87 84 72 57 17 348 328 326 332 339 350 4 10 14 21 32 51 64 60 60 63 64 65 67 59 70 65 355 339 357 354 352 8 21 33 49 57 76 80 68 55 58 70 92 106 106 103 105 105 83 47 29 98 130 133 106 101 108 113 117 117 122 137 132 129 129 117 136 180 112 111 100 277 282 326 335 355 22 52 60 325 296 321 354 3
71 75 77 71 62 36 356 345 334 333 341 353 6 15 21 17 22 45 61 74 83 79 81 80 68 64 67 63 64 61 359 360 16 2 358 15 29 35 44 58 83 84 78 61 53 76 104 113 117 101 88 91 78 55 51 102 125 124 112 102 108 118 127 127 137 163 135 129 152 125 130 76 24 78 201 257 286 331 332 7 26 45 9 306 303 334 11 22
67 74 72 63 61 58 55 50 39 29 21 17 22 20 20 26 43 68 81 85 90 90 95 94 72 54 57 56 63 61 28 23 25 18 16 32 43 44 50 64 77 85 89 72 56 88 113 122 106 89 115 137 101 81 82 119 114 116 113 107 105 81 109 152 156 165 127 145 169 113 74 339 356 213 231 252 286 330 353 35 30 12 314 301 321 359 19 29
81 79 77 85 85 81 75 68 62 56 49 38 30 31 34 43 60 74 88 91 93 93 102 107 81 58 46 58 60 50 38 31 36 44 40 48 57 61 66 71 75 80 88 83 79 90 99 101 94 92 115 111 115 119 121 117 94 93 79 98 109 54 28 234 200 145 128 169 165 99 13 289 248 223 238 254 287 333 12 37 14 338 321 308 338 16 19 31
83 84 94 97 92 85 76 66 61 58 56 54 44 42 47 55 70 78 76 69 70 109 147 142 101 72 54 71 63 39 30 31 41 41 37 47 65 70 70 73 77 82 88 89 88 91 94 93 89 83 68 83 111 106 100 95 61 92 82 51 96 84 290 267 235 130 123 222 133 95 275 256 235 229 231 240 276 313 46 24 354 340 340 331 348 24 17 30
86 101 108 104 97 85 66 52 52 55 57 60 59 52 45 65 84 81 68 66 67 67 129 117 63 95 77 74 59 27 17 24 29 24 27 34 47 65 68 72 80 87 92 93 91 90 89 87 78 64 56 56 84 94 92 80 32 86 94 353 10 96 239 278 263 133 129 260 126 101 271 259 229 229 228 227 269 295 121 22 333 346 350 346 351 18 17 21
100 116 120 112 97 61 25 19 36 53 61 64 65 60 55 58 125 84 63 75 71 56 54 37 13 99 100 19 3 14 9 11 13 19 29 27 26 59 79 75 84 91 90 88 91 91 85 79 68 64 71 40 61 97 85 52 13 22 87 70 346 91 122 294 303 32 24 277 187 160 212 266 235 223 232 223 252 301 95 341 308 345 342 346 359 5 17 13
112 128 133 121 34 355 349 350 353 14 62 78 74 64 58 55 56 131 167 124 90 55 45 25 358 135 82 12 5 357 349 355 10 23 27 21 23 41 185 117 104 109 95 67 59 66 62 62 63 54 58 38 46 85 70 44 342 326 38 87 156 131 129 264 294 335 359 2 251 229 201 242 228 204 218 218 224 269 98 253 299 2 334 339 13 356 6 10
122 173 226 286 319 334 341 340 337 336 291 183 136 92 64 56 59 68 69 84 94 358 33 19 18 115 18 358 353 330 332 355 19 25 24 24 31 48 103 95 97 106 89 41 26 21 18 38 66 63 35 25 32 56 78 118 201 273 258 102 88 115 131 205 241 291 6 24 310 296 260 261 236 206 213 216 207 214 219 224 300 5 336 335 3 341 341 1
4 312 301 305 322 341 354 7 20 28 17 244 207 196 148 47 54 56 52 60 61 48 44 359 17 105 311 320 329 332 343 17 29 24 19 16 27 53 63 64 74 66 46 22 10 12 29 39 43 48 18 0 5 68 131 192 193 186 189 137 145 160 224 232 236 232 84 38 303 258 248 257 238 221 216 217 203 200 236 245 29 342 335 336 328 303 311 360
22 357 330 317 333 5 32 47 43 37 38 65 146 168 157 334 37 34 31 53 69 88 114 292 16 90 302 294 340 353 8 29 30 20 14 11 15 45 42 36 56 59 50 49 21 11 46 68 50 27 333 309 301 290 226 230 211 121 99 95 136 135 285 262 248 245 113 71 273 248 250 260 243 230 217 207 196 198 234 33 10 318 329 318 291 285 322 7
24 10 340 322 323 68 75 65 43 40 43 63 95 95 130 163 81 113 358 54 66 79 91 57 68 70 1 340 360 2 1 23 23 12 9 13 27 42 8 2 48 44 20 39 57 28 58 69 30 326 311 308 313 321 339 349 38 70 94 88 84 83 275 266 228 259 78 82 274 323 337 285 258 240 222 188 183 210 213 152 313 310 319 291 270 295 353 6
23 9 347 320 229 136 136 91 33 52 55 64 90 94 118 138 113 143 144 79 45 42 71 50 52 46 10 31 11 9 39 25 14 2 4 11 29 40 356 35 63 49 358 21 45 19 42 44 327 303 360 22 15 18 35 47 47 38 70 100 50 317 282 296 331 315 83 109 274 355 355 295 273 251 220 184 183 214 195 158 190 286 310 293 287 2 18 2
22 12 8 319 187 161 164 185 26 74 73 81 102 107 120 126 128 148 107 93 57 355 39 42 44 22 7 25 8 15 50 38 359 345 358 6 23 40 43 54 65 57 24 44 58 50 55 347 306 311 42 49 28 19 38 49 46 37 56 90 287 307 27 312 308 308 274 193 269 345 339 294 298 294 212 209 197 186 172 159 169 285 295 302 335 60 42 6
20 14 16 30 174 177 160 116 92 93 89 103 111 117 133 135 130 130 75 90 61 360 36 54 67 42 16 7 355 9 61 44 21 342 354 8 21 17 62 82 76 56 50 71 76 82 88 295 306 358 40 57 42 17 33 48 17 360 82 105 249 289 300 243 281 316 328 342 325 353 341 298 320 3 215 244 217 167 185 168 5 331 295 313 1 54 30 2
14 9 17 43 173 176 158 111 97 106 104 108 115 126 134 133 130 52 82 72 25 345 18 33 60 30 358 355 353 1 108 43 49 344 352 21 27 9 49 103 91 44 40 76 78 82 47 318 340 35 34 60 61 23 23 72 34 333 278 162 201 229 246 286 326 5 17 351 313 48 17 302 313 317 233 246 209 212 245 304 310 305 295 325 352 359 351 350
10 8 20 45 155 161 164 130 106 119 115 102 118 138 129 114 132 60 95 67 20 330 360 359 9 6 351 350 344 351 77 5 315 5 15 21 3 95 59 350 61 43 130 101 79 87 9 343 26 50 42 49 47 16 338 95 83 357 278 176 169 150 134 340 17 48 54 305 280 87 81 284 311 302 245 233 189 223 261 280 269 281 292 317 324 263 325 351
12 14 29 54 150 166 179 164 142 136 125 123 134 141 120 102 119 63 72 53 16 356 7 338 341 4 350 347 350 75 74 305 314 8 17 19 359 57 62 12 23 357 273 104 53 9 353 356 17 32 40 39 27 348 301 87 87 341 223 148 151 147 143 114 85 89 195 271 312 14 106 274 301 272 248 217 168 227 259 272 271 274 279 300 302 254 263 19
22 25 45 84 112 137 153 139 132 113 111 142 144 136 131 133 145 59 77 72 354 7 30 312 337 1 344 355 19 80 200 283 19 350 355 25 18 32 60 38 74 341 333 95 97 261 330 9 15 29 33 23 351 286 271 126 83 269 209 153 170 170 148 112 92 98 268 38 343 315 39 353 282 273 276 261 199 257 272 267 264 267 270 290 294 259 246 153
31 34 52 107 109 101 116 119 108 102 112 133 130 125 128 116 106 52 72 101 331 348 209 320 349 344 343 3 22 45 358 1 78 324 342 28 21 28 70 38 104 24 358 75 123 218 248 57 80 76 46 330 268 268 251 166 304 263 172 125 86 93 93 87 96 95 22 45 286 278 8 57 284 283 292 319 266 262 270 266 260 261 263 280 285 255 239 201
36 40 50 93 120 93 92 91 95 106 109 118 125 129 121 79 71 57 44 78 355 329 315 16 6 333 5 19 3 9 20 11 2 346 4 28 10 23 72 16 68 76 14 37 80 210 309 25 111 105 85 250 252 270 238 196 260 291 103 66 46 46 45 61 77 86 59 15 264 254 160 95 298 286 242 226 231 221 240 276 274 271 272 281 282 249 222 213
38 41 46 61 82 72 82 85 92 107 102 108 124 113 83 41 60 83 61 359 355 336 355 8 345 358 21 35 4 351 6 352 348 19 21 12 13 20 31 14 22 53 21 11 19 346 350 13 6 254 251 248 275 303 315 278 317 27 36 23 38 14 13 28 360 38 65 318 262 243 235 134 231 275 257 241 241 216 217 256 267 269 263 271 279 248 221 216
39 39 41 47 58 60 80 102 105 112 108 110 109 73 74 44 34 81 306 333 357 337 4 327 311 355 6 26 21 348 346 347 357 36 37 36 40 35 51 42 333 20 14 346 349 353 347 337 317 305 295 13 37 8 351 354 15 32 22 31 48 7 7 15 338 10 51 272 251 231 284 235 229 257 261 249 248 235 222 230 244 248 245 266 277 243 225 224
39 41 40 41 47 55 73 91 96 117 135 120 77 52 76 72 41 285 296 339 79 289 5 272 300 331 3 30 11 338 360 355 349 22 46 88 58 35 54 39 356 49 18 333 9 5 338 307 333 354 340 14 57 64 354 333 1 20 17 53 72 64 29 354 314 338 320 278 282 285 224 250 286 277 246 225 228 229 225 227 230 226 228 257 262 224 224 229
38 42 44 42 42 47 61 72 83 116 136 94 63 53 64 74 122 220 301 280 218 333 354 267 322 347 29 55 332 319 25 358 340 26 16 30 39 6 350 358 2 32 76 62 53 42 22 316 325 16 341 12 53 119 164 197 319 312 172 107 96 115 103 290 258 287 290 287 299 319 21 247 293 284 226 215 232 238 235 238 238 233 236 252 245 206 224 221
41 40 41 39 37 39 47 58 72 106 114 70 64 60 73 104 225 178 248 260 284 341 319 318 34 36 15 360 315 328 42 310 360 46 19 23 55 11 346 333 340 8 65 69 22 38 94 264 260 246 317 76 79 241 154 114 6 282 130 82 45 170 141 159 212 211 246 304 295 304 296 247 262 272 252 255 283 279 268 258 251 248 253 262 244 204 219 208
50 42 38 33 30 30 34 43 44 49 97 79 67 59 97 171 207 167 197 251 84 292 314 340 46 57 354 328 340 345 353 319 7 49 28 36 95 15 354 280 304 3 63 104 95 353 54 273 278 337 357 102 173 232 193 123 67 343 42 43 262 181 131 122 277 261 25 360 282 294 304 293 313 315 310 329 302 289 289 270 244 239 254 271 251 212 210 200
56 54 40 25 22 22 21 22 25 37 77 80 77 95 173 192 168 164 191 35 124 162 84 52 22 50 350 330 330 327 346 358 360 40 38 23 66 23 339 277 279 355 48 124 146 230 128 284 286 264 283 262 203 180 305 251 125 81 49 237 221 93 92 106 311 336 26 27 276 311 299 297 332 321 312 330 306 291 291 267 247 246 264 271 240 202 197 192
54 80 42 17 12 10 9 9 25 55 74 71 75 114 148 130 144 157 157 105 163 80 77 104 181 153 183 133 313 307 342 13 351 27 57 5 25 112 94 292 296 347 295 130 76 334 118 317 295 243 187 285 324 75 350 319 29 106 152 210 120 74 359 20 73 357 4 315 293 306 292 280 246 242 295 311 297 291 290 273 260 259 265 262 221 193 199 186
43 94 34 5 3 4 6 20 66 63 67 75 91 130 121 123 100 167 156 122 134 100 73 147 175 99 172 158 209 285 339 48 11 36 81 50 346 108 117 280 301 334 332 70 118 259 108 95 290 283 231 298 2 52 265 296 337 32 36 350 31 129 176 224 128 157 166 289 293 310 318 296 235 221 254 276 281 289 288 284 272 260 258 245 206 197 198 184
38 81 18 355 359 357 9 42 58 51 62 94 144 143 80 129 241 256 167 156 181 144 83 193 133 87 193 204 193 257 357 81 116 68 77 118 343 317 112 137 281 310 333 26 82 288 18 117 260 299 327 329 320 254 189 182 167 61 35 354 331 348 110 140 219 158 140 170 245 308 310 283 258 225 223 254 273 275 268 274 273 263 256 223 199 203 197 184
39 73 342 349 355 343 14 47 46 44 80 89 103 93 57 128 149 322 206 187 212 216 187 151 143 141 166 186 219 198 7 13 77 89 317 334 48 321 242 148 181 286 327 26 32 332 7 129 241 299 329 305 249 240 188 166 165 154 151 190 191 153 88 66 314 292 107 156 190 203 287 276 268 228 216 240 262 270 264 264 269 271 256 214 203 202 187 188
52 75 332 347 354 9 55 55 19 33 85 74 55 91 64 100 114 57 259 36 74 240 358 97 130 117 135 160 196 157 105 15 27 76 215 225 186 207 220 143 168 254 99 65 329 269 173 106 292 279 275 255 262 267 139 127 165 157 164 177 155 137 119 120 230 269 330 278 214 151 243 268 264 230 217 226 249 275 275 260 262 271 254 216 205 193 182 197
65 136 351 356 350 21 68 60 351 26 64 204 340 43 32 80 116 148 358 27 30 256 14 28 106 58 113 195 125 122 143 164 181 189 219 228 231 229 213 42 339 304 128 149 267 278 170 89 15 290 289 303 311 314 5 36 64 152 247 190 155 158 139 145 171 182 282 276 240 119 249 269 272 240 217 235 272 297 295 273 254 257 261 220 187 179 189 193
88 189 356 12 11 57 87 92 121 61 56 248 49 24 354 55 110 120 124 7 351 132 81 62 221 85 159 143 100 142 212 54 201 224 224 211 235 343 358 357 345 254 185 196 192 304 300 96 48 338 336 343 348 349 346 352 15 214 242 209 158 121 103 112 125 91 341 241 178 152 243 266 272 253 245 288 312 320 312 296 257 250 272 217 171 180 196 175
61 98 301 16 35 62 90 143 139 125 153 114 74 45 24 33 34 160 154 187 193 164 145 248 210 119 104 70 59 35 15 41 246 316 22 256 257 347 346 318 307 208 256 306 306 306 251 205 129 85 30 334 319 316 312 307 294 254 193 156 153 127 128 143 112 92 240 236 164 171 245 277 289 298 309 313 321 322 316 315 295 279 280 173 171 190 195 167
72 44 315 351 27 53 64 72 98 108 150 130 81 27 84 65 293 234 133 121 238 170 143 345 153 86 50 54 42 345 314 18 18 16 351 253 273 315 262 280 30 146 180 307 330 54 89 259 213 170 183 210 237 252 259 302 300 283 272 237 202 174 148 129 115 166 203 214 220 230 242 275 290 299 311 314 321 321 315 321 319 302 235 172 186 198 193 168
89 64 360 325 354 31 40 21 49 84 145 134 106 56 122 98 320 344 97 235 229 108 54 62 131 141 133 92 58 309 269 353 37 8 231 235 266 308 244 173 66 50 165 236 320 73 89 305 261 194 221 234 240 259 272 298 273 262 265 249 202 185 158 151 190 212 174 47 280 250 223 273 286 293 303 306 311 313 310 314 309 279 200 187 197 198 190 169
76 121 200 117 20 34 41 16 47 74 67 90 106 121 130 114 204 190 219 298 4 17 153 30 304 233 196 160 109 123 299 344 320 249 249 251 271 340 337 159 33 340 6 32 330 97 115 272 252 194 252 256 250 265 271 264 259 250 244 242 226 191 176 194 222 215 162 222 260 264 282 285 280 287 294 296 297 300 297 291 284 268 201 188 193 203 203 183
63 91 309 36 97 172 195 339 65 77 61 75 96 128 150 152 199 221 195 69 360 314 120 182 280 252 199 160 118 150 250 335 314 274 228 227 262 298 327 301 283 346 21 45 326 122 130 255 247 213 288 282 268 272 260 228 260 271 246 230 222 207 199 214 233 217 193 237 256 269 283 280 274 275 280 284 284 284 284 284 301 320 255 200 198 219 223 193
74 114 321 45 62 138 234 340 58 70 43 58 89 181 164 162 193 223 179 128 182 284 164 204 252 229 171 143 129 191 224 186 209 250 197 168 290 226 207 243 155 78 15 54 302 295 163 269 258 96 332 301 292 306 294 221 241 276 277 255 225 224 227 230 238 225 213 247 260 268 278 278 273 262 260 271 280 289 299 308 315 302 251 211 205 230 231 194
108 164 147 93 48 357 355 356 53 76 25 14 88 181 185 190 198 189 168 159 168 199 191 190 204 176 103 109 186 236 241 192 196 222 191 183 251 224 204 206 141 130 251 235 232 321 173 281 333 54 7 291 292 338 321 301 276 274 285 279 232 210 226 225 217 199 195 232 268 285 280 275 278 278 272 278 289 306 307 305 304 290 247 208 214 235 226 192
101 152 120 105 74 5 15 356 14 60 24 330 216 191 227 241 239 144 137 334 52 138 184 175 161 141 89 260 237 238 223 189 204 228 209 204 240 228 186 152 130 135 169 178 160 210 143 117 351 48 356 273 291 327 314 319 349 318 276 248 202 205 233 248 247 219 203 211 264 272 263 272 293 320 310 304 310 313 303 291 287 293 266 218 220 225 209 192
Height
833 833 833 833 833 833 833 833 833 833 833 833 833 833 833 833 833 832 832 831 831 830 829 828 827 826 825 824 824 823 823 822 822 820 818 821 823 820 819 818 816 815 814 814 812 811 810 810 811 810 810 812 814 816 815 817 818 823 840 856 862 866 865 863 867 870 873 878 878 877 876 876 880 879 877 879 881 882 883 882 882 881 880 879 878 876 875 874
834 834 834 834 834 834 834 834 834 834 834 834 834 834 833 833 833 833 832 831 831 830 829 828 827 826 825 824 823 822 822 822 821 819 820 823 822 821 820 818 817 816 814 814 813 812 812 812 812 811 814 818 820 820 819 821 825 835 850 861 865 866 864 861 863 866 869 874 875 876 876 875 878 878 877 881 885 884 884 883 883 882 880 878 876 875 875 874
834 834 834 834 834 834 834 834 834 834 834 834 834 834 834 833 833 833 832 832 831 830 829 828 827 826 824 823 822 822 822 822 821 821 822 823 822 821 819 818 817 815 814 814 813 813 813 814 813 813 817 823 826 824 825 827 832 841 851 863 868 864 863 863 864 866 867 870 874 877 877 877 878 876 878 883 885 885 884 883 882 881 879 877 875 874 874 872
835 835 835 835 835 835 835 835 835 835 834 834 834 834 834 834 833 833 832 831 831 830 829 828 827 826 825 823 821 822 821 823 825 824 824 823 822 820 819 818 817 815 815 814 813 813 814 814 813 815 820 828 830 827 832 834 836 845 852 862 866 861 864 866 865 866 868 870 873 876 877 879 880 878 881 883 883 885 884 882 881 880 878 876 874 873 873 872
836 836 836 836 836 835 835 835 835 835 835 835 835 834 834 833 833 833 832 831 831 830 829 828 827 826 825 823 822 821 821 829 830 825 824 824 822 820 818 817 816 816 815 814 814 813 814 814 814 818 826 833 834 833 841 841 838 851 860 861 862 861 865 868 866 867 869 870 873 875 877 879 880 880 882 882 883 884 881 879 879 878 877 875 874 873 872 871
836 836 836 836 836 835 835 835 835 835 835 835 835 834 834 834 833 832 832 831 831 830 829 828 827 826 826 825 823 820 823 834 833 825 825 824 822 820 818 817 816 816 815 814 814 813 814 815 818 825 833 841 842 842 848 846 841 854 865 863 862 862 864 868 868 869 870 871 874 876 877 878 880 882 883 882 881 881 878 877 877 876 875 874 873 873 872 870
836 836 836 836 836 836 836 835 836 835 835 835 835 834 834 833 833 832 832 831 831 830 829 828 827 826 826 826 825 823 827 834 832 826 826 824 823 820 818 818 817 816 815 814 814 815 817 818 824 831 837 843 847 849 850 849 847 854 865 866 864 864 865 868 869 870 871 872 875 876 876 879 881 882 882 881 880 878 877 876 875 874 874 874 874 873 871 870
837 836 836 836 836 836 836 836 836 835 835 835 835 834 834 833 832 832 832 831 831 830 829 828 827 825 825 826 827 828 831 834 831 828 826 824 823 821 819 818 817 818 816 815 816 816 818 822 827 831 839 845 847 850 849 851 857 859 865 867 866 867 868 869 870 871 873 874 875 876 877 880 880 880 881 881 878 877 876 874 873 874 874 874 873 871 870 869
837 837 837 837 837 836 836 836 836 836 835 835 835 834 833 833 832 832 831 831 831 830 830 828 827 825 825 826 826 831 835 835 832 829 827 826 824 822 820 819 819 818 816 817 817 816 819 824 827 829 838 847 847 851 849 850 862 864 865 867 868 870 870 870 872 872 874 875 875 877 879 880 878 878 881 879 876 876 875 873 873 874 874 873 871 870 869 869
837 837 837 837 837 837 836 836 836 835 835 834 834 833 833 832 832 832 831 831 831 831 831 829 829 827 827 827 826 833 838 835 832 830 828 827 825 823 821 820 821 819 819 820 819 819 821 824 828 828 835 844 849 853 850 851 862 865 865 868 869 871 871 871 873 873 874 875 875 877 880 880 878 879 882 879 875 876 875 873 874 874 874 872 870 869 869 869
838 837 837 837 837 837 836 836 836 835 835 834 834 833 833 832 832 832 831 832 832 832 832 830 830 829 829 828 827 836 839 834 834 831 830 829 827 825 824 823 823 821 821 822 823 824 824 826 827 829 837 845 850 854 855 856 862 865 866 870 872 872 872 873 874 874 874 876 875 876 880 880 878 880 881 878 875 875 874 874 874 874 873 871 869 869 869 869
838 838 838 837 837 837 836 836 835 834 834 834 834 833 833 833 832 832 832 832 832 832 832 831 831 830 830 828 831 838 838 835 835 833 832 830 829 829 827 826 825 824 823 824 827 827 827 827 825 829 840 846 853 858 861 862 863 866 866 871 875 874 874 874 873 873 873 876 875 874 880 883 882 881 879 876 874 875 874 874 874 873 872 870 869 870 870 869
839 839 838 838 838 837 836 836 835 835 834 834 834 833 833 833 833 833 832 832 833 832 832 832 831 830 830 832 836 839 838 836 836 835 834 832 831 831 829 829 828 827 826 826 829 829 829 829 827 833 841 846 854 858 860 863 864 868 869 871 877 878 879 874 871 872 873 874 873 875 883 886 885 880 877 876 874 875 875 875 874 873 872 870 870 871 870 869
839 839 839 838 838 838 837 837 836 836 835 835 835 834 834 833 833 833 832 832 832 832 832 832 832 831 832 836 839 838 838 838 837 835 835 834 833 833 832 831 830 830 830 829 831 832 832 832 831 837 844 847 853 856 861 866 866 870 872 874 880 881 880 875 871 874 875 874 872 877 884 885 883 880 877 875 874 875 875 875 874 872 871 871 871 871 869 869
840 840 839 839 838 838 838 838 838 838 837 836 835 835 834 833 834 833 832 833 832 832 832 831 831 831 834 838 839 839 839 838 837 836 836 836 834 834 834 834 833 833 832 833 834 835 835 836 837 844 851 851 853 860 867 870 869 873 873 877 882 881 880 877 872 874 875 875 873 878 883 882 882 879 876 874 873 874 874 874 874 872 871 871 871 870 869 869
841 841 840 839 839 839 839 839 839 839 838 838 836 836 835 834 834 832 833 832 831 832 831 831 831 831 837 843 840 839 840 838 838 837 836 837 836 835 836 835 836 835 836 837 837 838 838 840 844 851 857 858 861 865 869 872 873 874 875 877 881 881 883 881 874 873 875 876 875 877 881 881 881 878 875 874 873 873 873 873 873 871 871 871 870 869 868 868
842 841 841 840 840 840 839 839 839 839 839 838 837 837 836 834 833 832 833 832 832 832 830 832 830 829 837 841 841 841 841 841 839 838 837 836 836 835 836 836 837 837 838 838 838 840 841 845 851 857 863 867 869 865 865 875 877 875 876 877 880 881 883 882 877 876 875 876 877 876 878 878 877 876 874 873 872 872 872 872 872 871 870 870 870 869 868 868
843 842 841 841 841 840 840 839 838 838 838 838 837 837 836 836 835 833 833 832 831 830 831 832 830 837 846 843 846 847 843 843 841 838 837 836 835 835 835 836 837 838 839 840 843 845 846 852 858 863 869 872 875 869 868 878 879 876 875 875 878 880 881 880 878 878 876 876 877 877 877 876 876 875 873 871 871 871 871 871 871 870 869 869 868 868 867 867
843 842 842 841 841 840 840 839 838 837 837 836 837 837 836 837 836 835 835 832 834 839 846 846 843 854 860 851 849 848 844 843 841 839 838 837 836 836 836 837 839 840 844 849 852 853 854 860 866 871 878 879 879 879 877 880 878 876 875 874 875 876 878 879 878 878 878 877 877 876 876 874 874 874 871 869 869 870 869 870 871 870 868 868 867 867 866 866
843 842 841 841 841 840 840 839 838 837 836 836 836 836 837 839 841 844 842 838 844 852 856 857 854 858 859 854 851 847 845 844 842 842 841 839 838 837 838 841 842 844 851 858 860 859 861 872 880 882 884 881 878 879 879 878 876 875 874 873 875 876 876 877 877 877 877 878 876 875 875 873 872 870 869 868 868 869 869 869 870 869 868 867 866 866 866 865
843 842 841 841 840 840 840 839 839 838 837 836 835 836 840 842 844 849 849 849 854 855 855 856 855 856 857 856 853 850 848 846 843 844 845 843 839 840 845 847 848 854 861 863 863 863 867 879 886 882 880 879 878 879 876 873 873 874 875 873 876 878 876 875 876 876 877 878 876 876 875 871 869 868 867 867 866 867 868 868 870 869 868 867 865 865 865 865
843 842 841 840 840 840 840 839 839 838 838 837 836 838 842 842 843 845 847 852 857 855 855 855 854 856 856 856 855 853 851 851 851 849 848 845 842 847 853 853 858 867 869 865 865 869 873 881 883 878 878 878 879 879 874 872 874 875 875 874 876 879 878 876 876 877 878 878 876 878 877 870 868 868 866 865 864 865 866 867 869 868 868 867 864 865 865 865
843 841 840 840 839 839 839 839 839 839 838 838 838 839 842 843 844 843 844 851 858 857 855 855 856 859 857 856 857 854 854 861 863 857 853 851 850 854 858 859 867 874 875 872 873 877 880 882 879 876 876 876 878 880 875 873 877 880 876 875 878 880 879 878 877 877 878 878 877 879 879 872 867 867 866 863 862 863 865 867 868 867 868 866 862 864 865 864
842 841 840 839 839 839 839 839 838 838 839 839 839 841 842 843 843 844 845 850 857 858 858 859 859 861 861 860 859 858 861 865 867 863 860 858 858 859 861 865 871 877 879 878 878 882 885 883 878 874 874 876 879 880 879 878 879 884 883 879 880 882 883 883 881 879 876 879 880 879 878 870 866 868 866 864 864 863 864 866 865 866 867 864 861 863 864 863
842 840 839 838 838 838 838 839 838 839 840 839 840 841 843 843 843 844 845 853 862 862 860 861 861 863 863 862 862 862 864 865 867 866 863 861 861 862 863 866 870 875 879 879 880 883 883 881 878 874 874 877 880 881 885 885 878 881 884 883 883 885 886 886 883 879 877 878 879 879 879 871 867 869 866 863 865 864 865 865 864 866 866 863 861 862 863 862
841 840 839 838 838 837 838 839 838 839 840 840 842 842 843 843 843 843 845 860 872 869 865 863 865 866 864 864 863 862 866 868 867 866 863 863 862 862 865 869 870 873 876 878 879 880 881 881 879 876 877 879 882 883 886 888 881 878 882 884 887 888 887 885 883 880 879 880 879 880 883 878 870 867 864 863 865 865 865 865 864 866 865 861 862 862 862 861
840 839 838 837 837 837 837 838 839 839 839 842 842 842 843 843 843 843 848 871 883 874 870 868 868 870 868 868 865 866 876 874 866 865 865 864 863 861 867 874 874 874 877 878 880 883 882 882 880 879 880 879 881 882 884 887 883 876 881 885 886 886 884 885 884 882 883 882 880 878 880 882 875 865 861 863 865 866 866 864 864 864 863 861 861 861 861 860
840 839 838 837 837 837 837 837 838 839 840 842 841 842 844 842 844 843 854 887 893 875 875 875 869 870 870 870 868 870 878 876 872 872 867 866 866 863 870 879 880 880 880 877 881 888 886 885 885 883 884 882 881 882 884 886 881 875 881 886 885 885 885 886 884 882 885 883 880 878 876 882 877 862 861 866 865 865 863 861 862 861 861 861 860 860 859 859
840 839 837 838 837 837 837 837 837 839 840 841 841 843 843 842 845 846 862 892 892 876 879 878 871 874 875 873 873 876 876 875 879 877 869 870 870 868 875 881 881 882 880 876 880 888 887 887 888 887 888 887 883 882 883 883 879 877 883 886 888 890 886 886 885 882 884 883 880 879 877 883 878 860 861 866 862 861 859 858 859 859 860 860 858 859 857 857
840 839 838 837 837 837 837 837 839 840 841 841 842 843 843 844 849 860 880 894 888 882 883 879 880 885 883 878 877 881 881 878 881 878 874 878 876 875 880 882 882 883 882 881 882 887 888 887 889 888 888 888 885 883 882 882 880 877 880 883 884 888 885 885 887 883 882 881 879 878 877 884 882 863 857 860 858 858 858 857 857 857 859 858 856 857 856 856
841 839 838 837 838 838 838 839 840 840 841 842 843 843 844 849 858 878 897 894 887 889 887 885 890 890 888 889 888 888 886 882 884 882 881 885 885 883 884 886 888 882 880 884 884 886 887 885 887 887 886 888 885 881 880 882 882 877 877 877 875 880 883 882 883 882 883 882 877 876 877 884 884 864 852 855 856 857 857 856 855 854 856 857 854 855 856 855
841 840 839 838 839 838 838 840 841 841 842 842 843 844 846 857 875 893 899 889 890 898 896 895 897 893 894 895 895 897 892 888 889 889 891 894 898 901 900 904 904 889 883 890 890 886 885 886 889 887 885 887 882 878 878 878 879 879 881 882 880 885 886 883 885 886 885 881 873 875 880 881 877 858 848 854 854 854 856 853 852 853 854 854 853 854 854 854
843 842 841 840 840 839 840 841 841 842 843 842 845 846 850 867 891 905 901 893 897 902 902 903 900 897 897 893 896 901 897 894 893 892 895 897 901 907 908 913 913 899 890 895 894 888 885 886 888 885 884 886 884 884 883 880 881 884 887 888 889 896 897 893 896 894 888 879 870 876 882 877 869 854 846 851 851 850 851 850 851 852 853 852 851 852 853 852
845 843 843 842 841 841 841 841 842 843 843 843 845 847 858 881 901 907 903 900 904 904 904 906 901 897 897 896 902 904 897 897 897 894 895 897 899 904 905 908 910 907 899 897 900 900 893 887 886 885 886 888 889 890 891 889 887 889 891 890 891 897 901 900 900 897 893 889 880 876 875 870 865 854 846 848 849 848 849 849 852 852 851 851 850 851 851 851
845 844 844 843 842 843 842 842 843 843 843 843 847 857 874 894 903 903 903 905 907 906 904 906 902 897 898 902 906 906 900 897 898 898 899 902 906 908 910 911 912 913 904 896 902 907 899 890 888 890 890 890 890 892 895 893 888 888 890 891 892 897 899 901 901 897 897 899 890 877 866 860 857 850 848 850 849 848 849 850 852 851 849 849 848 849 850 850
846 845 844 844 844 844 843 844 843 844 845 842 851 874 892 900 902 903 907 909 910 909 904 902 901 896 897 901 903 904 903 899 898 899 902 908 912 912 915 916 916 917 908 901 905 907 898 889 888 891 891 891 892 893 894 892 886 887 891 893 899 902 899 899 901 898 901 901 888 875 866 861 856 850 850 854 850 846 847 848 849 848 846 846 846 847 848 849
845 845 846 846 846 846 845 845 844 844 844 843 859 888 903 906 909 912 914 914 916 916 905 898 901 903 901 900 900 901 901 900 899 898 902 907 909 912 917 917 917 917 915 912 909 909 906 895 889 891 889 891 897 895 892 893 890 889 891 895 901 903 901 902 903 899 903 901 886 875 874 871 866 856 849 851 848 843 843 844 845 845 843 843 844 846 847 848
845 845 846 848 848 848 846 845 845 844 845 856 880 900 905 908 914 917 919 918 918 915 904 897 904 908 905 901 901 904 901 898 898 900 903 905 906 913 917 916 916 917 920 918 911 912 914 898 887 890 889 889 897 894 889 893 894 892 893 895 898 898 898 900 901 900 903 903 890 880 879 874 866 854 846 845 844 841 841 843 842 842 842 842 842 845 846 846
845 846 850 851 849 849 848 845 846 844 846 867 892 901 904 911 917 919 921 920 918 912 902 900 905 907 907 905 904 905 904 901 901 903 904 905 907 913 917 918 916 916 920 920 913 913 916 903 888 888 891 892 892 889 887 889 892 894 894 895 894 895 897 898 899 901 903 904 898 888 880 868 856 848 844 842 841 840 840 840 840 840 840 840 841 843 844 844
846 849 854 854 850 851 850 845 847 852 862 882 898 901 905 912 917 922 923 920 917 911 904 903 904 903 906 910 909 907 906 904 905 904 904 907 908 911 919 922 918 918 921 920 916 915 913 907 895 888 892 892 888 889 889 887 891 892 892 895 894 894 898 898 898 900 900 902 903 899 887 865 848 844 843 839 838 839 839 838 837 837 838 838 839 840 841 842
846 852 856 854 851 851 849 850 863 876 885 894 901 905 908 911 915 921 923 922 918 914 911 909 906 904 905 907 908 909 907 904 906 906 906 908 907 907 918 926 924 923 920 914 916 916 911 909 904 893 888 884 886 896 900 896 895 893 890 893 894 894 897 897 897 898 899 899 898 901 895 867 842 838 838 836 837 837 836 837 835 835 836 837 837 838 840 841
850 858 860 855 853 851 850 864 886 895 895 901 905 908 911 913 914 916 920 922 919 915 914 912 908 908 908 907 907 911 909 905 905 907 906 908 909 909 919 929 930 928 922 914 916 921 918 916 910 896 886 888 894 902 905 903 900 897 896 895 895 897 896 895 896 897 901 902 897 901 898 865 837 836 835 834 837 836 834 836 834 833 834 834 836 838 839 840
857 861 860 855 854 852 854 874 896 901 904 911 914 913 914 913 913 914 917 917 915 913 912 910 911 911 910 911 910 910 909 906 905 907 906 908 912 917 926 931 930 929 924 916 916 922 920 913 907 895 887 892 899 901 903 904 901 896 895 897 897 895 894 895 899 903 905 902 895 900 896 860 833 835 835 833 837 836 834 834 833 832 832 832 835 838 838 839
862 862 860 857 853 851 858 873 890 902 910 912 911 912 915 915 914 913 914 913 914 913 910 910 913 911 911 914 912 910 910 906 903 908 910 908 914 926 932 932 930 928 923 917 917 920 913 905 906 901 889 886 889 892 894 896 897 892 890 896 897 895 898 901 905 909 905 895 892 896 886 852 830 831 834 834 835 834 833 833 831 831 830 831 835 836 837 838
862 862 863 861 855 856 869 880 886 897 907 906 906 910 910 912 917 916 914 915 917 916 911 910 914 913 914 915 911 911 913 908 904 910 914 911 916 929 933 932 932 929 927 928 928 922 912 907 907 902 895 893 891 888 886 887 890 889 890 896 897 896 897 896 901 909 901 892 893 888 870 844 828 829 832 832 833 832 832 831 830 830 830 831 834 835 835 837
864 867 869 868 864 868 881 891 890 893 900 900 901 907 907 907 914 919 918 915 917 918 914 912 915 914 912 911 907 907 912 913 911 912 911 908 913 926 933 932 932 932 932 934 931 924 917 913 910 904 898 896 892 886 886 889 890 888 888 893 896 898 898 895 898 900 892 890 887 872 860 851 837 832 832 831 832 833 831 830 830 831 831 831 833 833 833 835
870 880 884 879 876 877 883 892 893 893 896 896 897 904 908 907 911 916 916 915 918 919 915 914 915 910 907 908 906 904 908 913 915 913 911 911 915 926 934 932 932 933 933 933 930 924 915 907 909 910 902 895 893 889 890 895 894 889 888 890 891 897 900 897 893 887 885 889 878 857 856 859 844 834 834 833 833 833 831 831 831 830 830 830 831 832 833 834
876 888 895 889 886 887 887 891 896 895 895 897 901 906 907 906 907 907 910 916 919 917 912 909 910 909 907 908 905 904 907 908 908 909 911 914 916 919 924 928 932 935 933 930 930 926 914 905 910 912 903 896 896 894 893 898 896 890 890 889 889 896 899 892 885 884 885 884 869 853 857 860 847 837 836 834 834 834 831 831 831 829 829 830 830 831 831 833
884 889 895 893 893 897 898 900 900 895 893 897 901 905 903 901 901 903 909 911 911 914 913 903 901 907 910 910 907 904 904 903 903 906 909 911 913 912 910 914 925 936 933 926 928 929 917 905 909 912 900 892 891 890 892 895 890 884 884 884 885 890 893 888 883 884 886 881 869 863 866 862 849 841 838 834 833 833 831 829 829 827 827 828 829 829 829 831
887 889 893 893 895 900 903 902 899 893 894 897 896 900 903 900 898 903 909 906 900 907 913 903 900 907 909 911 909 904 904 905 903 905 909 909 910 910 907 906 914 929 931 924 926 929 917 904 907 910 898 885 882 882 884 887 887 882 877 878 883 886 888 889 888 888 888 881 872 873 876 864 844 835 835 833 830 831 829 827 827 826 827 827 827 827 828 829
887 890 891 890 894 901 900 900 899 893 892 896 895 899 902 900 899 901 904 908 905 904 907 903 902 908 911 912 909 904 908 911 907 908 912 910 909 910 909 910 912 918 923 924 923 923 918 909 906 908 900 885 879 881 881 884 888 884 874 869 875 879 876 875 879 882 878 868 863 869 867 848 830 829 831 828 827 828 826 824 825 825 825 826 825 825 826 828
888 889 890 889 893 901 901 900 899 895 895 901 903 903 902 901 904 902 899 907 913 911 911 909 906 907 908 906 906 908 914 917 915 917 918 917 916 915 913 914 915 913 915 920 922 922 921 913 906 909 903 885 879 886 887 881 875 867 861 856 858 864 864 862 865 869 866 860 857 855 845 830 825 829 829 824 824 825 823 823 824 824 824 824 823 824 825 827